Regional Weather Roundup
Issued by NWS

Home | Current Version | Previous Version | Graphics & Text | Print | Product List | Glossary On
Versions: 1 2 3 4 5 6 7 8 9 10 11 12 13 14 15 16 17 18 19 20 21 22 23 24 25 26 27 28 29 30 31 32 33 34 35 36 37 38 39 40 41 42 43 44 45 46 47 48 49 50
000
ASUS45 KCYS 272310
RWRWY

WYOMING REGIONAL WEATHER ROUNDUP
NATIONAL WEATHER SERVICE CHEYENNE WY
500 PM MDT MON JUL 27 2015

NOTE:  "FAIR" INDICATES FEW OR NO CLOUDS BELOW 12,000 FEET
WITH NO SIGNIFICANT WEATHER AND/OR OBSTRUCTIONS TO VISIBILITY.

WYZ001-280000-
YELLOWSTONE NATIONAL PARK

CITY           SKY/WX    TMP DP  RH WIND       PRES   REMARKS
LK YELLOWSTONE   N/A     42  37  82 VRB3      30.12F
W YELLOWSTONE  NOT AVBL

$$
WYZ002>013-054>058-071-098>099-280000-
NORTHERN WYOMING

CITY           SKY/WX    TMP DP  RH WIND       PRES   REMARKS
JACKSON        PTSUNNY   54  39  58 S14       30.09S
CODY           FAIR      61  39  44 W22G38    29.86R
GREYBULL       LGT RAIN  64  52  64 NW46G56   29.70R
WORLAND        TSTM      73  56  54 NW14G25   29.74R
SHERIDAN       FAIR      77  52  41 NW9       29.67F
BUFFALO        FAIR      73  55  53 VRB5      29.77R
GILLETTE       PTSUNNY   69  59  70 E7        29.71R
HULETT         FAIR      81  52  36 E7        29.71F
NEWCASTLE      FAIR      70  55  60 CALM      29.74F

$$
WYZ014>020-022>026-101>103-280000-
CENTRAL WYOMING

CITY           SKY/WX    TMP DP  RH WIND       PRES   REMARKS
BIG PINEY      FAIR      63  32  31 NW28G36   30.10R
PINEDALE       FAIR      59  36  41 NW18G24   30.09S
DUBOIS         FAIR      54  37  54 W18G33    30.02S
LANDER         FAIR      76  31  19 MISG      29.85R
RIVERTON       FAIR      79  31  17 W29G44    29.85R
CASPER         LGT RAIN  70  44  39 W37G59    29.79R
DOUGLAS        FAIR      86  41  20 SW14      29.76F

$$
WYZ021-027>030-104>119-280000-
SOUTHERN WYOMING

CITY           SKY/WX    TMP DP  RH WIND       PRES   REMARKS
EVANSTON       FAIR      67  32  27 W23G38    30.14R
KEMMERER       FAIR      63  32  31 W30G39    30.10S
FORT BRIDGER   MOCLDY    72  32  23 W25G38    30.13R
ROCK SPRINGS   FAIR      72  37  28 W25G35    30.04R
DIXON          FAIR      85  24  11 SW22G36   29.97S
RAWLINS        FAIR      81  26  13 W25G48    29.95R
SARATOGA       FAIR      84  27  12 SW30G45   29.99R
LARAMIE        FAIR      83  37  19 SW25G38   29.98S
CHEYENNE       FAIR      89  46  22 S13G20    29.88F
TORRINGTON     LGT RAIN  88  61  40 SE16      29.70S
PINE BLUFFS    FAIR      91  45  19 S12G23    29.82S

$$


USA.gov is the U.S. government's official web portal to all federal, state and local government web resources and services.